| time (UTC) | temp F | wind direction | speed MPH | gust MPH | rain 1hr in | rain 24hr in | rain mn in | humidity % | barometer mb |
| 20260904140520 | 81 | 306 | 7.0 | 16.0 | 0.00 | 0.00 | 0.00 | 55 | 1014.9 |
| 20260904135609 | 81 | 305 | 9.0 | 25.0 | 0.00 | 0.01 | 0.00 | 55 | 1015.0 |
| 20260904134109 | 81 | 291 | 8.0 | 22.0 | 0.00 | 0.01 | 0.00 | 55 | 1015.0 |
| 20260904132557 | 81 | 280 | 9.0 | 17.0 | 0.00 | 0.01 | 0.00 | 55 | 1015.2 |
| 20260904131521 | 81 | 266 | 7.0 | 16.0 | 0.00 | 0.01 | 0.00 | 56 | 1015.4 |
| 20260904130056 | 81 | 0 | 11.0 | 17.0 | 0.00 | 0.01 | 0.00 | 56 | 1015.6 |
| 20260904125109 | 80 | 291 | 8.0 | 23.0 | 0.00 | 0.01 | 0.00 | 58 | 1015.7 |
| 20260904124055 | 80 | 293 | 8.0 | 22.0 | 0.00 | 0.01 | 0.00 | 58 | 1015.6 |
| 20260904123057 | 79 | 296 | 10.0 | 20.0 | 0.00 | 0.01 | 0.00 | 59 | 1015.9 |
| 20260904122020 | 79 | 306 | 8.0 | 20.0 | 0.00 | 0.01 | 0.00 | 59 | 1016.2 |
| 20260904121111 | 78 | 288 | 6.0 | 14.0 | 0.00 | 0.01 | 0.00 | 60 | 1016.3 |
| 20260904120057 | 78 | 293 | 7.0 | 15.0 | 0.00 | 0.01 | 0.00 | 60 | 1016.3 |
| 20260904115108 | 78 | 279 | 8.0 | 15.0 | 0.00 | 0.01 | 0.00 | 61 | 1016.4 |
| 20260904114055 | 78 | 315 | 8.0 | 14.0 | 0.00 | 0.01 | 0.00 | 61 | 1016.6 |
| 20260904113043 | 78 | 277 | 8.0 | 20.0 | 0.00 | 0.01 | 0.00 | 61 | 1016.7 |
| 20260904112032 | 77 | 260 | 7.0 | 22.0 | 0.00 | 0.01 | 0.00 | 62 | 1017.0 |
| 20260904111020 | 77 | 306 | 7.0 | 16.0 | 0.00 | 0.01 | 0.00 | 63 | 1017.1 |
| 20260904110108 | 77 | 314 | 7.0 | 20.0 | 0.00 | 0.01 | 0.00 | 63 | 1017.2 |
| 20260904104545 | 76 | 350 | 6.0 | 17.0 | 0.00 | 0.01 | 0.00 | 64 | 1017.2 |
| 20260904103021 | 76 | 298 | 7.0 | 20.0 | 0.00 | 0.01 | 0.00 | 64 | 1017.7 |
| 20260904102109 | 77 | 322 | 9.0 | 20.0 | 0.00 | 0.01 | 0.00 | 63 | 1017.9 |
| 20260904100557 | 77 | 273 | 6.0 | 15.0 | 0.00 | 0.01 | 0.00 | 63 | 1018.0 |
| 20260904095611 | 76 | 302 | 8.0 | 21.0 | 0.00 | 0.01 | 0.00 | 63 | 1018.3 |
| 20260904094556 | 77 | 311 | 7.0 | 15.0 | 0.00 | 0.01 | 0.00 | 62 | 1018.3 |
| 20260904093521 | 76 | 323 | 8.0 | 18.0 | 0.00 | 0.01 | 0.00 | 62 | 1018.2 |
| 20260904092109 | 74 | 303 | 7.0 | 15.0 | 0.00 | 0.01 | 0.00 | 66 | 1018.3 |
| 20260904090558 | 74 | 305 | 9.0 | 17.0 | 0.00 | 0.01 | 0.00 | 66 | 1018.7 |
| 20260904085612 | 74 | 286 | 7.0 | 16.0 | 0.00 | 0.01 | 0.00 | 67 | 1018.8 |
| 20260904084555 | 73 | 238 | 5.0 | 14.0 | 0.00 | 0.01 | 0.00 | 69 | 1019.1 |
| 20260904083521 | 72 | 277 | 6.0 | 15.0 | 0.00 | 0.01 | 0.00 | 70 | 1019.2 |
| 20260904082032 | 72 | 324 | 5.0 | 16.0 | 0.00 | 0.01 | 0.00 | 72 | 1019.4 |
| 20260904081021 | 73 | 291 | 5.0 | 14.0 | 0.00 | 0.01 | 0.00 | 71 | 1019.4 |
| 20260904080109 | 72 | 282 | 5.0 | 11.0 | 0.00 | 0.01 | 0.00 | 72 | 1019.4 |
| 20260904074557 | 72 | 281 | 2.0 | 4.0 | 0.00 | 0.01 | 0.00 | 74 | 1019.6 |
| 20260904073608 | 71 | 316 | 4.0 | 11.0 | 0.00 | 0.01 | 0.00 | 74 | 1019.5 |
| 20260904072556 | 71 | 255 | 3.0 | 7.0 | 0.00 | 0.01 | 0.00 | 77 | 1019.7 |
| 20260904071609 | 70 | 326 | 2.0 | 6.0 | 0.00 | 0.01 | 0.00 | 78 | 1019.9 |
| 20260904070559 | 69 | 191 | 1.0 | 2.0 | 0.00 | 0.01 | 0.00 | 80 | 1020.1 |
| 20260904065544 | 69 | 193 | 1.0 | 2.0 | 0.00 | 0.01 | 0.00 | 80 | 1020.2 |
| 20260904064532 | 68 | 321 | 2.0 | 6.0 | 0.00 | 0.01 | 0.00 | 82 | 1020.2 |
| 20260904063521 | 67 | 315 | 2.0 | 4.0 | 0.00 | 0.01 | 0.00 | 84 | 1020.3 |
| 20260904062110 | 67 | 354 | 1.0 | 2.0 | 0.00 | 0.01 | 0.00 | 85 | 1020.5 |
| 20260904060520 | 66 | 38 | 2.0 | 6.0 | 0.00 | 0.01 | 0.00 | 86 | 1020.7 |
| 20260904055610 | 66 | 135 | 0.0 | 4.0 | 0.00 | 0.01 | 0.00 | 86 | 1020.7 |
| 20260904054111 | 66 | 35 | 1.0 | 4.0 | 0.00 | 0.01 | 0.00 | 85 | 1020.9 |
| 20260904052558 | 66 | 281 | 2.0 | 4.0 | 0.00 | 0.01 | 0.00 | 85 | 1020.9 |
| 20260904051532 | 66 | 232 | 1.0 | 4.0 | 0.00 | 0.01 | 0.00 | 84 | 1021.2 |
| 20260904050522 | 66 | 27 | 0.0 | 2.0 | 0.00 | 0.01 | 0.00 | 84 | 1021.2 |
| 20260904045609 | 66 | 169 | 1.0 | 4.0 | 0.00 | 0.01 | 0.00 | 84 | 1021.3 |
| 20260904044111 | 65 | 343 | 0.0 | 2.0 | 0.00 | 0.01 | 0.00 | 85 | 1021.2 |
| 20260904042555 | 65 | 315 | 0.0 | 4.0 | 0.00 | 0.01 | 0.00 | 84 | 1021.2 |
| 20260904041607 | 66 | 311 | 2.0 | 6.0 | 0.00 | 0.01 | 0.00 | 84 | 1021.4 |
| 20260904040557 | 66 | 293 | 1.0 | 2.0 | 0.00 | 0.01 | 0.00 | 83 | 1021.6 |
| 20260904035610 | 66 | 281 | 1.0 | 4.0 | 0.00 | 0.01 | 0.00 | 82 | 1021.8 |
| 20260904034109 | 66 | 300 | 1.0 | 4.0 | 0.00 | 0.01 | 0.00 | 82 | 1022.1 |
| 20260904032519 | 65 | 293 | 0.0 | 2.0 | 0.00 | 0.01 | 0.00 | 84 | 1022.1 |
| 20260904031610 | 65 | 324 | 1.0 | 4.0 | 0.00 | 0.01 | 0.00 | 83 | 1022.2 |
| 20260904030555 | 65 | 0.0 | 0.0 | 0.00 | 0.01 | 0.00 | 83 | 1022.2 | |
| 20260904025609 | 65 | 315 | 0.0 | 2.0 | 0.00 | 0.01 | 0.00 | 84 | 1022.1 |
| 20260904024055 | 64 | 0.0 | 2.0 | 0.00 | 0.01 | 0.00 | 85 | 1022.3 | |
| 20260904023022 | 64 | 0.0 | 0.0 | 0.00 | 0.01 | 0.00 | 84 | 1022.3 | |
| 20260904022109 | 64 | 0.0 | 0.0 | 0.00 | 0.01 | 0.00 | 85 | 1022.3 | |
| 20260904020557 | 64 | 0.0 | 2.0 | 0.00 | 0.01 | 0.00 | 84 | 1022.4 | |
| 20260904015544 | 64 | 0.0 | 2.0 | 0.00 | 0.01 | 0.00 | 84 | 1022.4 | |
| 20260904014532 | 65 | 338 | 0.0 | 2.0 | 0.00 | 0.01 | 0.00 | 83 | 1022.6 |
| 20260904013521 | 65 | 315 | 0.0 | 4.0 | 0.00 | 0.01 | 0.00 | 83 | 1022.7 |
| 20260904012109 | 65 | 289 | 1.0 | 4.0 | 0.00 | 0.01 | 0.00 | 82 | 1022.8 |
| 20260904010557 | 65 | 113 | 2.0 | 4.0 | 0.00 | 0.01 | 0.00 | 81 | 1022.6 |
| 20260904005610 | 65 | 306 | 1.0 | 4.0 | 0.00 | 0.01 | 0.00 | 81 | 1022.8 |
| 20260904004556 | 65 | 304 | 1.0 | 2.0 | 0.00 | 0.01 | 0.00 | 82 | 1022.8 |
| 20260904003520 | 65 | 34 | 0.0 | 2.0 | 0.00 | 0.01 | 0.00 | 82 | 1023.0 |
| 20260904002057 | 66 | 0.0 | 0.0 | 0.00 | 0.01 | 0.00 | 81 | 1022.9 | |
| 20260904001036 | 66 | 322 | 2.0 | 4.0 | 0.00 | 0.01 | 0.00 | 79 | 1023.0 |
| 20260903235545 | 66 | 303 | 2.0 | 7.0 | 0.00 | 0.01 | 0.00 | 79 | 1023.0 |
| 20260903234534 | 66 | 316 | 2.0 | 7.0 | 0.00 | 0.01 | 0.00 | 80 | 1023.1 |
| 20260903233522 | 66 | 293 | 1.0 | 2.0 | 0.00 | 0.01 | 0.00 | 79 | 1023.3 |
| 20260903232109 | 67 | 68 | 1.0 | 2.0 | 0.00 | 0.01 | 0.00 | 78 | 1023.4 |
| 20260903231033 | 67 | 253 | 2.0 | 11.0 | 0.00 | 0.01 | 0.00 | 78 | 1023.4 |
| 20260903225544 | 67 | 305 | 3.0 | 9.0 | 0.00 | 0.01 | 0.00 | 78 | 1023.5 |
| 20260903224533 | 67 | 304 | 3.0 | 7.0 | 0.00 | 0.01 | 0.00 | 78 | 1023.5 |
| 20260903223521 | 66 | 309 | 3.0 | 6.0 | 0.00 | 0.01 | 0.00 | 78 | 1023.6 |
| 20260903222108 | 66 | 180 | 2.0 | 4.0 | 0.00 | 0.01 | 0.00 | 78 | 1023.8 |
| 20260903221031 | 66 | 315 | 2.0 | 4.0 | 0.00 | 0.01 | 0.00 | 78 | 1023.7 |
| 20260903220019 | 66 | 346 | 1.0 | 2.0 | 0.00 | 0.01 | 0.00 | 79 | 1024.0 |
| 20260903215108 | 66 | 325 | 1.0 | 4.0 | 0.00 | 0.01 | 0.01 | 79 | 1023.7 |
| 20260903214056 | 65 | 0.0 | 2.0 | 0.00 | 0.01 | 0.01 | 79 | 1023.6 | |
| 20260903213033 | 66 | 280 | 1.0 | 4.0 | 0.00 | 0.01 | 0.01 | 78 | 1023.8 |
| 20260903211609 | 66 | 291 | 3.0 | 4.0 | 0.00 | 0.01 | 0.01 | 77 | 1023.7 |
| 20260903210110 | 66 | 286 | 1.0 | 4.0 | 0.00 | 0.01 | 0.01 | 77 | 1023.7 |
| 20260903204557 | 65 | 0.0 | 0.0 | 0.00 | 0.01 | 0.01 | 79 | 1023.8 | |
| 20260903203521 | 65 | 315 | 0.0 | 2.0 | 0.00 | 0.01 | 0.01 | 79 | 1023.9 |
| 20260903202032 | 65 | 321 | 1.0 | 2.0 | 0.00 | 0.01 | 0.01 | 78 | 1023.9 |
| 20260903201020 | 66 | 299 | 2.0 | 4.0 | 0.00 | 0.01 | 0.01 | 77 | 1023.8 |
| 20260903200109 | 66 | 293 | 2.0 | 7.0 | 0.00 | 0.01 | 0.01 | 76 | 1023.8 |
| 20260903194533 | 66 | 272 | 2.0 | 7.0 | 0.00 | 0.01 | 0.01 | 76 | 1023.8 |
| 20260903193520 | 66 | 291 | 4.0 | 9.0 | 0.00 | 0.01 | 0.01 | 75 | 1023.7 |
| 20260903192108 | 66 | 284 | 3.0 | 9.0 | 0.00 | 0.01 | 0.01 | 75 | 1023.8 |
| 20260903190521 | 66 | 309 | 4.0 | 11.0 | 0.00 | 0.01 | 0.01 | 74 | 1023.9 |
| 20260903185608 | 66 | 358 | 4.0 | 14.0 | 0.00 | 0.01 | 0.01 | 74 | 1023.8 |
| 20260903184556 | 66 | 266 | 3.0 | 7.0 | 0.00 | 0.01 | 0.01 | 74 | 1023.9 |
| 20260903183522 | 66 | 314 | 3.0 | 8.0 | 0.00 | 0.01 | 0.01 | 74 | 1023.9 |
| 20260903182109 | 66 | 292 | 4.0 | 7.0 | 0.00 | 0.01 | 0.01 | 74 | 1023.9 |
| 20260903180521 | 66 | 293 | 3.0 | 7.0 | 0.00 | 0.01 | 0.01 | 75 | 1023.5 |
| 20260903175608 | 66 | 280 | 2.0 | 7.0 | 0.00 | 0.01 | 0.01 | 77 | 1023.5 |
| 20260903174556 | 66 | 357 | 1.0 | 2.0 | 0.00 | 0.01 | 0.01 | 76 | 1023.6 |
| 20260903173544 | 67 | 322 | 4.0 | 9.0 | 0.00 | 0.01 | 0.01 | 75 | 1023.7 |
| 20260903172534 | 67 | 298 | 5.0 | 11.0 | 0.00 | 0.01 | 0.01 | 75 | 1023.5 |
| 20260903171521 | 67 | 292 | 6.0 | 13.0 | 0.00 | 0.01 | 0.01 | 74 | 1023.5 |
| 20260903170109 | 67 | 290 | 5.0 | 16.0 | 0.00 | 0.01 | 0.01 | 73 | 1023.5 |
| 20260903164533 | 67 | 306 | 4.0 | 9.0 | 0.00 | 0.01 | 0.01 | 74 | 1023.6 |
| 20260903163521 | 67 | 316 | 5.0 | 14.0 | 0.00 | 0.01 | 0.01 | 74 | 1023.7 |
| 20260903162110 | 67 | 299 | 4.0 | 11.0 | 0.00 | 0.02 | 0.01 | 74 | 1023.7 |
| 20260903160519 | 67 | 266 | 4.0 | 14.0 | 0.00 | 0.02 | 0.01 | 73 | 1023.9 |
| 20260903155611 | 67 | 304 | 5.0 | 14.0 | 0.00 | 0.02 | 0.01 | 74 | 1024.1 |
| 20260903154109 | 66 | 302 | 4.0 | 8.0 | 0.00 | 0.02 | 0.01 | 76 | 1024.4 |
| 20260903152557 | 66 | 301 | 8.0 | 13.0 | 0.00 | 0.02 | 0.01 | 76 | 1024.1 |
| 20260903151611 | 66 | 298 | 5.0 | 11.0 | 0.00 | 0.02 | 0.01 | 76 | 1024.2 |
| 20260903150557 | 66 | 356 | 6.0 | 14.0 | 0.00 | 0.02 | 0.01 | 75 | 1024.2 |
| 20260903145613 | 67 | 166 | 5.0 | 14.0 | 0.01 | 0.02 | 0.01 | 74 | 1024.1 |
| 20260903144110 | 67 | 302 | 5.0 | 15.0 | 0.01 | 0.02 | 0.01 | 73 | 1024.0 |
| 20260903142556 | 67 | 38 | 6.0 | 18.0 | 0.01 | 0.02 | 0.01 | 73 | 1024.0 |
| 20260903141521 | 67 | 298 | 5.0 | 11.0 | 0.01 | 0.02 | 0.01 | 73 | 1023.8 |